sat.trackr.live / text

‹ back to catalog

STARLINK-5800

NORAD 56041 · 2023-042BH

PAYLOAD ACTIVE UNKNOWN

§ Identity

Operator
Country
US
Launch date
2023-03-24
Launch site
AFETR
Launch vehicle
Mass (kg)
RCS (m²)

Purposes: comms

External: N2YO · Heavens-Above · Gunter

§ Orbital elements

Epoch: 2026-09-20T08:13:32.520864Z

Period
94.27 min
Inclination
43.0036°
Eccentricity
0.0001273
Mean motion
15.27574430 rev/d
Perigee alt
482.2 km
Apogee alt
483.9 km
Semi-major
6,861.2 km
B*
-1.0461e-6
RAAN
14.6877°
Arg perigee
271.2255°
Mean anomaly
88.8451°
Rev number
19,293

§ Raw data

STARLINK-58001 56041U 23042BH  26263.34273751 -.00000291  00000+0 -10461-5 0  99982 56041  43.0036  14.6877 0001273 271.2255  88.8451 15.27574430192930

JSON: /api/v1/satellites/56041 · /tle

For live sub-satellite position, see the globe view (requires WebGL).

§ Visibility from observer

Set your observer location to see the next 7 days of passes ≥ 10°. The values pass through the URL so the page stays shareable.

No JS? Fill the form by hand. The geolocation button needs JavaScript.